• In Uzbekistan
  • List of Countries
  • For 7 days
  • Water Temperature
  • Satellite Maps
  • Weather Map
  • Weather Widgets
  • user-avatar
    Login

    Hourly Weather Ordino

    Today, 17 October, Tuesday

    Time Temperature Precipitation Wind Pressure Humidity
    00:00 +9°C° 0 mm 1 mps 639 mmHg 81%
    01:00 +9°C° 0 mm 1 mps 638 mmHg 82%
    02:00 +8°C° 0 mm 1 mps 638 mmHg 82%
    03:00 +8°C° 0 mm 1 mps 637 mmHg 82%
    04:00 +8°C° 0 mm 1 mps 637 mmHg 78%
    05:00 +7°C° 0 mm 1 mps 637 mmHg 73%
    06:00 +7°C° 0 mm 1 mps 636 mmHg 66%
    07:00 +8°C° 0 mm 2 mps 637 mmHg 57%
    08:00 +12°C° 0 mm 2 mps 638 mmHg 49%
    09:00 +14°C° 0 mm 2 mps 639 mmHg 40%
    10:00 +15°C° 0 mm 2 mps 639 mmHg 38%
    11:00 +17°C° 0 mm 3 mps 640 mmHg 36%
    12:00 +18°C° 0 mm 3 mps 640 mmHg 33%
    13:00 +18°C° 0 mm 3 mps 639 mmHg 35%
    14:00 +17°C° 0 mm 3 mps 639 mmHg 37%
    15:00 +17°C° 0 mm 3 mps 638 mmHg 38%
    16:00 +13°C° 0 mm 3 mps 637 mmHg 49%
    17:00 +12°C° 0 mm 2 mps 636 mmHg 60%
    18:00 +8°C° 0 mm 2 mps 635 mmHg 70%
    19:00 +8°C° 0 mm 2 mps 635 mmHg 74%
    20:00 +7°C° 0 mm 2 mps 635 mmHg 77%
    21:00 +8°C° 0 mm 1 mps 635 mmHg 80%
    22:00 +8°C° 0 mm 1 mps 634 mmHg 80%
    23:00 +7°C° 0 mm 2 mps 634 mmHg 81%

    Tomorrow, 18 October, Wednesday

    Time Temperature Precipitation Wind Pressure Humidity
    00:00 +7°C° 0 mm 2 mps 634 mmHg 81%
    01:00 +7°C° 0 mm 2 mps 633 mmHg 80%
    02:00 +7°C° 0 mm 2 mps 633 mmHg 80%
    03:00 +7°C° 0 mm 2 mps 633 mmHg 79%
    04:00 +7°C° 0 mm 2 mps 632 mmHg 79%
    05:00 +7°C° 0 mm 2 mps 632 mmHg 80%
    06:00 +7°C° 0 mm 2 mps 632 mmHg 80%
    07:00 +9°C° 0 mm 2 mps 633 mmHg 75%
    08:00 +12°C° 0 mm 2 mps 633 mmHg 71%
    09:00 +13°C° 0 mm 2 mps 634 mmHg 66%
    10:00 +14°C° 0.1 mm 2 mps 634 mmHg 65%
    11:00 +13°C° 0.1 mm 3 mps 633 mmHg 63%
    12:00 +14°C° 0.1 mm 3 mps 633 mmHg 61%
    13:00 +14°C° 0.3 mm 3 mps 633 mmHg 64%
    14:00 +13°C° 0.3 mm 3 mps 632 mmHg 68%
    15:00 +13°C° 0.3 mm 3 mps 631 mmHg 71%
    16:00 +12°C° 0.3 mm 3 mps 631 mmHg 75%
    17:00 +10°C° 0.3 mm 2 mps 630 mmHg 79%
    18:00 +9°C° 0.3 mm 2 mps 630 mmHg 83%
    19:00 +9°C° 0.5 mm 2 mps 630 mmHg 84%
    20:00 +9°C° 0.5 mm 2 mps 630 mmHg 86%
    21:00 +9°C° 0.5 mm 2 mps 630 mmHg 87%
    22:00 +8°C° 1.7 mm 2 mps 630 mmHg 89%
    23:00 +8°C° 1.7 mm 2 mps 630 mmHg 91%

    Day after tomorrow, 19 October, Thursday

    Time Temperature Precipitation Wind Pressure Humidity
    00:00 +8°C° 1.7 mm 2 mps 629 mmHg 93%
    01:00 +8°C° 1.2 mm 2 mps 629 mmHg 94%
    02:00 +8°C° 1.2 mm 2 mps 629 mmHg 95%
    03:00 +8°C° 1.2 mm 2 mps 629 mmHg 96%
    04:00 +7°C° 0.1 mm 2 mps 629 mmHg 96%
    05:00 +8°C° 0.1 mm 1 mps 629 mmHg 95%
    06:00 +7°C° 0.1 mm 1 mps 629 mmHg 95%
    07:00 +8°C° 0 mm 1 mps 630 mmHg 89%
    08:00 +9°C° 0 mm 1 mps 631 mmHg 83%
    09:00 +10°C° 0 mm 1 mps 631 mmHg 76%
    10:00 +11°C° 0.1 mm 1 mps 631 mmHg 73%
    11:00 +12°C° 0.1 mm 2 mps 632 mmHg 70%
    12:00 +12°C° 0.1 mm 2 mps 632 mmHg 67%
    13:00 +12°C° 0.1 mm 2 mps 632 mmHg 68%
    14:00 +12°C° 0.1 mm 1 mps 631 mmHg 69%
    15:00 +12°C° 0.1 mm 1 mps 631 mmHg 71%
    16:00 +11°C° 0.1 mm 1 mps 631 mmHg 77%
    17:00 +10°C° 0.1 mm 1 mps 631 mmHg 84%
    18:00 +8°C° 0.1 mm 0 mps 631 mmHg 90%
    19:00 +8°C° 0.1 mm 0 mps 631 mmHg 90%
    20:00 +8°C° 0.1 mm 0 mps 632 mmHg 90%
    21:00 +8°C° 0.1 mm 1 mps 632 mmHg 90%
    22:00 +8°C° 0 mm 1 mps 632 mmHg 90%
    23:00 +8°C° 0 mm 1 mps 632 mmHg 90%

    20 October, Friday

    Time Temperature Precipitation Wind Pressure Humidity
    00:00 +8°C° 0 mm 1 mps 632 mmHg 89%
    01:00 +7°C° 0 mm 1 mps 632 mmHg 89%
    02:00 +7°C° 0 mm 1 mps 632 mmHg 88%
    03:00 +7°C° 0 mm 1 mps 632 mmHg 88%
    04:00 +7°C° 0 mm 1 mps 632 mmHg 87%
    05:00 +7°C° 0 mm 1 mps 632 mmHg 86%
    06:00 +7°C° 0 mm 1 mps 633 mmHg 86%
    07:00 +9°C° 0 mm 1 mps 634 mmHg 78%
    08:00 +11°C° 0 mm 1 mps 635 mmHg 71%
    09:00 +13°C° 0 mm 1 mps 636 mmHg 64%
    10:00 +15°C° 0 mm 2 mps 637 mmHg 59%
    11:00 +16°C° 0 mm 2 mps 637 mmHg 54%
    12:00 +17°C° 0 mm 2 mps 637 mmHg 50%
    13:00 +17°C° 0 mm 3 mps 637 mmHg 51%
    14:00 +16°C° 0 mm 3 mps 637 mmHg 53%
    15:00 +16°C° 0 mm 3 mps 636 mmHg 54%
    16:00 +14°C° 0 mm 2 mps 636 mmHg 63%
    17:00 +12°C° 0 mm 2 mps 635 mmHg 72%
    18:00 +9°C° 0 mm 2 mps 635 mmHg 81%
    19:00 +9°C° 0 mm 1 mps 635 mmHg 82%
    20:00 +9°C° 0 mm 1 mps 635 mmHg 82%
    21:00 +9°C° 0 mm 1 mps 635 mmHg 83%
    22:00 +8°C° 0 mm 1 mps 635 mmHg 83%
    23:00 +8°C° 0 mm 1 mps 635 mmHg 84%

    21 October, Saturday

    Time Temperature Precipitation Wind Pressure Humidity
    00:00 +7°C° 0 mm 2 mps 634 mmHg 84%
    01:00 +8°C° 0 mm 1 mps 634 mmHg 83%
    02:00 +8°C° 0 mm 1 mps 634 mmHg 82%
    03:00 +8°C° 0 mm 1 mps 634 mmHg 81%
    04:00 +8°C° 0 mm 1 mps 634 mmHg 80%
    05:00 +8°C° 0 mm 1 mps 635 mmHg 78%
    06:00 +9°C° 0 mm 1 mps 635 mmHg 77%
    07:00 +10°C° 0 mm 1 mps 636 mmHg 72%
    08:00 +11°C° 0 mm 1 mps 637 mmHg 68%
    09:00 +13°C° 0 mm 1 mps 638 mmHg 63%
    10:00 +14°C° 0 mm 1 mps 638 mmHg 62%
    11:00 +15°C° 0 mm 2 mps 638 mmHg 60%
    12:00 +15°C° 0 mm 2 mps 639 mmHg 58%
    13:00 +15°C° 0.1 mm 2 mps 638 mmHg 63%
    14:00 +14°C° 0.1 mm 2 mps 638 mmHg 67%
    15:00 +13°C° 0.1 mm 2 mps 637 mmHg 72%
    16:00 +12°C° 0.1 mm 2 mps 637 mmHg 78%
    17:00 +10°C° 0.1 mm 1 mps 637 mmHg 84%
    18:00 +9°C° 0.1 mm 1 mps 637 mmHg 90%
    19:00 +9°C° 0.2 mm 1 mps 637 mmHg 91%
    20:00 +9°C° 0.2 mm 1 mps 638 mmHg 92%
    21:00 +8°C° 0.2 mm 1 mps 638 mmHg 93%
    22:00 +8°C° 0.1 mm 1 mps 638 mmHg 93%
    23:00 +8°C° 0.1 mm 1 mps 638 mmHg 94%

    22 October, Sunday

    Time Temperature Precipitation Wind Pressure Humidity
    00:00 +8°C° 0.1 mm 1 mps 638 mmHg 94%
    01:00 +7°C° 0.1 mm 1 mps 637 mmHg 94%
    02:00 +6°C° 0.1 mm 2 mps 637 mmHg 94%
    03:00 +6°C° 0.1 mm 2 mps 637 mmHg 94%
    04:00 +5°C° 0 mm 2 mps 637 mmHg 94%
    05:00 +5°C° 0 mm 2 mps 637 mmHg 93%
    06:00 +4°C° 0 mm 2 mps 637 mmHg 93%
    07:00 +5°C° 0 mm 2 mps 638 mmHg 86%
    08:00 +6°C° 0 mm 2 mps 639 mmHg 80%
    09:00 +7°C° 0 mm 2 mps 639 mmHg 73%
    10:00 +8°C° 0 mm 2 mps 640 mmHg 65%
    11:00 +9°C° 0 mm 2 mps 640 mmHg 57%
    12:00 +12°C° 0 mm 2 mps 640 mmHg 49%
    13:00 +12°C° 0 mm 2 mps 640 mmHg 50%
    14:00 +10°C° 0 mm 2 mps 640 mmHg 50%
    15:00 +10°C° 0 mm 2 mps 640 mmHg 50%
    16:00 +8°C° 0 mm 2 mps 639 mmHg 59%
    17:00 +6°C° 0 mm 2 mps 639 mmHg 68%
    18:00 +5°C° 0 mm 2 mps 638 mmHg 77%
    19:00 +4°C° 0 mm 2 mps 638 mmHg 78%
    20:00 +5°C° 0 mm 1 mps 638 mmHg 79%
    21:00 +4°C° 0 mm 1 mps 639 mmHg 80%
    22:00 +4°C° 0 mm 1 mps 638 mmHg 79%
    23:00 +4°C° 0 mm 1 mps 638 mmHg 78%
    Show more